Flag for Germany Weather past 2 weeks in Saalfeld/Saale, Thuringia, Germany

Now
39 °F

Clear.


Feels Like: 32 °F
Forecast: 35 / 44 °F
Wind: 13 mph from West

Location: Erfurt-Bindersleben

Current Time: Mar 2, 2015 at 6:53:17 AM

Latest Report: Mar 2, 2015 at 6:20 AM


Visibility: 10 mi

Pressure: 29.47 "Hg

Humidity: 87%

Dew point: 36 °F

Location of Saalfeld/SaaleLocation

Historic Weather in Saalfeld/Saale — Graph

°F

Saalfeld/Saale temperature yesterday

Maximum temperature yesterday: 45 °F (at 2:20 PM)
Minimum temperature yesterday: 32 °F (at 12:50 AM)
Average temperature yesterday: 39 °F

Past Weeks' High & Low Weather Summary

 TemperatureHumidityPressure
High48 °F (Feb 21, 1:20 PM)100% (Feb 15, 5:20 AM)30.72 "Hg (Feb 15, 5:20 AM)
Low23 °F (Feb 15, 7:50 AM)43% (Feb 26, 1:50 PM)29.39 "Hg (Feb 23, 3:50 PM)
Average35 °F85%29.97 "Hg
* Reported Feb 15 5:20 AM — Mar 2 5:50 AM, Saalfeld/Saale, Weather by CustomWeather, © 2015

Note: Actual official high and low records may vary slightly from our data, if they occured in-between our weather recording intervals... More about our weather records

Advertising

Saalfeld/Saale weather history for previous 24 hours

 ConditionsComfort  
Time TempWeatherWind HumidityBarometerVisibility
5:50 AM
Mon, Mar 2
39 °FClear.16 mph87%29.47 "Hg10 mi
5:20 AM39 °FPartly cloudy.22 mph87%29.45 "HgN/A
4:50 AM41 °FSprinkles. Passing clouds.12 mph93%29.45 "Hg5 mi
4:20 AM43 °FSprinkles. Passing clouds.14 mph87%29.42 "HgN/A
3:50 AM43 °FLight rain. Passing clouds.15 mph87%29.45 "HgN/A
3:20 AM43 °FClear.13 mph81%29.45 "Hg10 mi
2:50 AM41 °FPassing clouds.12 mph93%29.45 "HgN/A
2:20 AM43 °FSprinkles. Passing clouds.16 mph87%29.47 "HgN/A
1:50 AM41 °FSprinkles. Partly cloudy.10 mph87%29.50 "HgN/A
1:20 AM41 °FClear.12 mph87%29.53 "Hg10 mi
12:50 AM41 °FClear.9 mph87%29.53 "Hg10 mi
12:20 AM41 °FClear.13 mph87%29.56 "Hg10 mi
11:50 PM
Sun, Mar 1
41 °FClear.12 mph87%29.59 "Hg10 mi
11:20 PM41 °FClear.12 mph87%29.59 "Hg10 mi
10:50 PM41 °FClear.12 mph87%29.59 "Hg10 mi
10:20 PM41 °FPassing clouds.8 mph87%29.62 "HgN/A
9:50 PM39 °FClear.8 mph93%29.62 "Hg10 mi
9:20 PM39 °FClear.7 mph93%29.62 "Hg10 mi
8:20 PM41 °FClear.13 mph87%29.62 "Hg10 mi
7:50 PM41 °FPassing clouds.10 mph87%29.65 "HgN/A
7:20 PM43 °FSprinkles. Passing clouds.7 mph87%29.65 "HgN/A
6:50 PM43 °FPassing clouds.9 mph87%29.62 "HgN/A
6:20 PM43 °FClear.8 mph87%29.62 "Hg10 mi
5:50 PM41 °FPartly sunny.8 mph93%29.62 "HgN/A
5:20 PM43 °FScattered clouds.13 mph87%29.62 "HgN/A
4:20 PM45 °FSprinkles. Broken clouds.14 mph76%29.62 "HgN/A
3:50 PM45 °FBroken clouds.14 mph76%29.62 "HgN/A
3:20 PM45 °FBroken clouds.15 mph76%29.62 "HgN/A
2:50 PM43 °FPartly sunny.17 mph81%29.62 "HgN/A
2:20 PM45 °FBroken clouds.15 mph76%29.62 "HgN/A
1:50 PM43 °FScattered clouds.16 mph81%29.62 "HgN/A
1:20 PM43 °FBroken clouds.16 mph81%29.65 "HgN/A
12:50 PM43 °FBroken clouds.16 mph81%29.65 "HgN/A
12:20 PM41 °FBroken clouds.16 mph81%29.65 "HgN/A
11:50 AM41 °FBroken clouds.18 mph81%29.65 "HgN/A
11:20 AM39 °FPartly sunny.16 mph81%29.65 "HgN/A
10:50 AM39 °FPartly sunny.14 mph81%29.65 "HgN/A
10:20 AM39 °FPartly sunny.17 mph81%29.65 "HgN/A
9:50 AM37 °FPartly sunny.18 mph87%29.65 "HgN/A
9:20 AM37 °FBroken clouds.21 mph87%29.62 "HgN/A
8:50 AM36 °FLight rain. Broken clouds.22 mph87%29.62 "HgN/A
8:20 AM36 °FLight rain. Broken clouds.22 mph87%29.65 "HgN/A
7:50 AM36 °FLight rain. Broken clouds.17 mph87%29.65 "HgN/A
7:20 AM37 °FLight rain. Broken clouds.20 mph75%29.68 "HgN/A
6:50 AM37 °FClear.20 mph70%29.68 "Hg10 mi
6:20 AM37 °FClear.18 mph75%29.71 "Hg10 mi
Weather by CustomWeather, © 2015

See weather overviewHow to use our weather pages